Location: Quedlinburg
(51.7921°N, 11.1414°E)
Time: 00:23:16
(UTC+01:00)

RS-44 - Visible Passes

Search period start: 15 March 2026 00:00
Search period end: 25 March 2026 00:00
Orbit: 1174 x 1511 km, 82.5° (Epoch: 14 March)

Date Brightness Start Highest point End Pass type
(mag) Time Alt. Az. Time Alt. Az. Time Alt. Az.
15 Mar ? 00:24:46 10° N 00:30:27 20° NE 00:35:59 11° E visible
15 Mar ? 02:17:25 10° N 02:25:38 67° ENE 02:28:33 44° SE visible
15 Mar ? 04:11:25 10° NNW 04:18:40 35° W 04:21:06 30° WSW visible
15 Mar ? 18:56:33 10° WNW 18:59:48 13° NW 19:03:08 10° NNW visible
16 Mar ? 00:48:07 10° N 00:54:56 27° ENE 00:59:11 19° E visible
16 Mar ? 02:41:10 10° N 02:49:30 89° WSW 02:51:44 56° S visible
16 Mar ? 04:35:41 10° NNW 04:41:58 25° WNW 04:44:19 22° W visible
16 Mar ? 23:20:30 10° NNE 23:22:49 11° NE 23:25:09 10° NE visible
17 Mar ? 01:11:38 10° N 01:19:14 38° ENE 01:22:27 29° ESE visible
17 Mar ? 03:05:01 10° NNW 03:13:13 65° W 03:15:01 54° SW visible
17 Mar ? 05:00:22 10° NW 05:05:08 17° WNW 05:07:34 15° W visible
17 Mar ? 23:42:57 10° N 23:47:39 16° NE 23:52:30 10° E visible
18 Mar ? 01:35:15 10° N 01:43:22 53° ENE 01:45:46 42° ESE visible
18 Mar ? 03:28:58 10° NNW 03:36:48 46° W 03:38:20 43° WSW visible
18 Mar ? 05:26:46 10° NW 05:28:07 10° WNW 05:29:29 10° WNW visible
19 Mar ? 00:06:08 10° N 00:12:18 22° NE 00:16:33 16° E visible
19 Mar ? 01:58:57 10° N 02:07:21 73° ENE 02:09:08 59° SE visible
19 Mar ? 03:53:04 10° NNW 04:00:14 33° W 04:01:41 31° W visible
20 Mar ? 00:29:34 10° N 00:36:45 30° ENE 00:39:56 24° E visible
20 Mar ? 02:22:45 10° NNW 02:31:11 83° W 02:32:31 68° S visible
20 Mar ? 04:17:24 10° NNW 04:23:30 23° WNW 04:25:05 22° W visible
20 Mar ? 23:01:23 10° NNE 23:04:45 13° NE 23:08:11 10° ENE visible
21 Mar ? 00:53:08 10° N 01:01:01 42° ENE 01:03:22 36° E visible
21 Mar ? 02:46:37 10° NNW 02:54:52 60° W 02:55:56 57° WSW visible
21 Mar ? 04:42:16 10° NW 04:46:36 15° WNW 04:48:30 14° W visible
21 Mar ? 23:24:15 10° N 23:29:34 18° NE 23:34:14 12° E visible
22 Mar ? 01:16:47 10° N 01:25:07 58° ENE 01:26:49 51° ESE visible
22 Mar ? 03:10:36 10° NNW 03:18:24 43° W 03:19:23 41° WSW visible
22 Mar ? 23:47:34 10° N 23:54:10 24° NE 23:57:42 19° E visible
23 Mar ? 01:40:31 10° N 01:49:04 79° ENE 01:50:16 68° SE visible
23 Mar ? 03:34:45 10° NNW 03:41:47 30° W 03:42:51 29° W visible
23 Mar ? 22:21:16 10° NNE 22:21:44 10° NNE 22:22:12 10° NE visible
24 Mar ? 00:11:04 10° N 00:18:35 33° ENE 00:21:12 28° E visible
24 Mar ? 02:04:20 10° NNW 02:12:52 77° W 02:13:46 71° SW visible
24 Mar ? 03:59:11 10° NNW 04:05:01 21° WNW 04:06:21 20° W visible
24 Mar ? 22:42:33 10° NNE 22:46:42 14° NE 22:50:56 10° ENE visible
